This is the latest recevied weather packets stored in our database for station/object IW1QLH-13. If no packets are shown the sender has not sent any weather packets the latest 10 day(s).
| Time | Temp. | Humidity | Pressure | Rain* | Wind** | Luminosity | Snow |
|---|---|---|---|---|---|---|---|
| 1777724874 | 22.78° C | 32% | 1016.8 hPa | - | - | 972 W/m² | - |
| 1777724245 | 22.78° C | 34% | 1017 hPa | - | - | 986 W/m² | - |
| 1777723614 | 22.78° C | 34% | 1017 hPa | - | - | 958 W/m² | - |
| 1777721725 | 22.78° C | 33% | 1017.4 hPa | - | - | 972 W/m² | - |
| 1777721096 | 21.67° C | 35% | 1017.4 hPa | - | - | 886 W/m² | - |
| 1777720466 | 22.78° C | 32% | 1017.4 hPa | - | - | 929 W/m² | - |
| 1777719836 | 21.67° C | 35% | 1017.5 hPa | - | - | 943 W/m² | - |
| 1777719207 | 22.78° C | 34% | 1017.7 hPa | - | - | 900 W/m² | - |
| 1777718578 | 22.78° C | 34% | 1017.8 hPa | - | - | 886 W/m² | - |
| 1777717945 | 22.78° C | 33% | 1018 hPa | - | - | 872 W/m² | - |
| 1777717313 | 22.78° C | 34% | 1018 hPa | - | - | 858 W/m² | - |
| 1777716684 | 22.78° C | 33% | 1018 hPa | - | - | 843 W/m² | - |
| 1777716054 | 21.67° C | 33% | 1018 hPa | - | - | 829 W/m² | - |
| 1777715425 | 22.78° C | 30% | 1018.2 hPa | - | - | 786 W/m² | - |
| 1777714795 | 22.78° C | 27% | 1018.2 hPa | - | - | 743 W/m² | - |
| 1777714167 | 22.78° C | 27% | 1018.3 hPa | - | - | 729 W/m² | - |
| 1777713538 | 22.78° C | 26% | 1018.5 hPa | - | - | 700 W/m² | - |
| 1777712908 | 22.78° C | 26% | 1018.4 hPa | - | - | 657 W/m² | - |
| 1777712279 | 22.78° C | 26% | 1018.4 hPa | - | - | 629 W/m² | - |
| 1777711650 | 22.78° C | 25% | 1018.5 hPa | - | - | 572 W/m² | - |
| 1777711020 | 23.89° C | 25% | 1018.5 hPa | - | - | 529 W/m² | - |
| 1777710392 | 23.89° C | 24% | 1018.5 hPa | - | - | 514 W/m² | - |
| 1777709762 | 23.89° C | 24% | 1018.4 hPa | - | - | 471 W/m² | - |
| 1777709133 | 23.89° C | 28% | 1018.4 hPa | - | - | 429 W/m² | - |
| 1777708502 | 25° C | 29% | 1018.5 hPa | - | - | 400 W/m² | - |
* Rain since midnight (hover to see other rain measurements)
** Current wind speed in m/s (hover to see current wind gust speed)